Location: Palo Alto
(37.4420°N, 122.1420°W)
Time: 12:58:57
(UTC-07:00)

Hubble Space Telescope - Visible Passes

Search period start: 11 August 2020 00:00
Search period end: 21 August 2020 00:00
Orbit: 536 x 540 km, 28.5° (Epoch: 11 August)

Date Brightness Start Highest point End Pass type
(mag) Time Alt. Az. Time Alt. Az. Time Alt. Az.
11 Aug 2.6 04:59:50 15° S 05:00:55 17° SSE 05:03:36 10° SE visible
12 Aug 2.5 04:49:41 18° S 04:50:06 19° S 04:53:01 10° ESE visible
13 Aug 2.4 04:39:34 20° SSE 04:39:34 20° SSE 04:42:23 10° ESE visible
14 Aug 2.5 04:29:28 20° SSE 04:29:28 20° SSE 04:31:42 10° ESE visible
15 Aug 2.8 04:19:26 17° SE 04:19:26 17° SE 04:20:58 10° ESE visible
15 Aug 2.4 05:55:17 10° WSW 05:58:21 20° S 06:01:24 10° SE visible
16 Aug 3.2 04:09:27 14° SE 04:09:27 14° SE 04:10:13 10° SE visible
16 Aug 2.5 05:44:48 11° SW 05:47:33 18° SSW 05:50:26 10° SSE visible
17 Aug 2.6 05:34:56 13° SW 05:36:43 16° SSW 05:39:22 10° SSE visible
18 Aug 2.6 05:25:10 14° SSW 05:25:55 14° SSW 05:28:11 10° SSE visible
19 Aug 2.9 05:15:31 12° SSW 05:15:31 12° SSW 05:16:48 10° S visible
